User: anonymous   Login
Location: Unspecified
(0.0000°N, 0.0000°E)
Time: 10:19:35
(UTC+00:00)
Language:

COSMOS 2438 - Orbit

View from above orbital plane
View from above orbital plane
View from above satellite
View from above satellite

Ground track
Ground track

The orbit data is extracted from the following two-line orbital elements,

1 32955U 08025C   17080.89863205 +.00000005 +00000-0 -34791-4 0  9990
2 32955 082.5002 292.6109 0021623 109.3145 251.0277 12.43297950400672
Epoch (UTC): 21 March 2017 21:34:01
Eccentricity: 0.0021623
inclination: 82.5002°
perigee height: 1475 km
apogee height: 1509 km
right ascension of ascending node: 292.6109°
argument of perigee: 109.3145°
revolutions per day: 12.43297950
mean anomaly at epoch: 251.0277°
orbit number at epoch: 40067

The dashed part of the orbit path shows where the satellite is in the earth's shadow,  

DLR